TimeAST,TemperatureF,Dew PointF,Humidity,Sea Level PressureIn,VisibilityMPH,Wind Direction,Wind SpeedMPH,Gust SpeedMPH,PrecipitationIn,Events,Conditions,WindDirDegrees,DateUTC
12:00 AM,80.6,71.6,74,29.98,6.2,East,10.4,-,N/A,,Mostly Cloudy,90,2013-03-23 04:00:00
2:00 AM,78.8,75.2,89,29.92,6.2,East,11.5,-,N/A,,Mostly Cloudy,80,2013-03-23 06:00:00
3:00 AM,78.8,71.6,78,29.92,6.2,ENE,11.5,-,N/A,,Mostly Cloudy,70,2013-03-23 07:00:00
5:00 AM,78.8,71.6,78,29.92,6.2,ENE,5.8,-,N/A,,Mostly Cloudy,60,2013-03-23 09:00:00
6:00 AM,78.8,71.6,78,29.95,6.2,Calm,Calm,-,N/A,,Mostly Cloudy,0,2013-03-23 10:00:00
7:00 AM,78.8,71.6,78,29.95,6.2,ENE,8.1,-,N/A,,Mostly Cloudy,60,2013-03-23 11:00:00
8:00 AM,82.4,71.6,70,29.98,6.2,East,13.8,-,N/A,,Mostly Cloudy,90,2013-03-23 12:00:00
9:00 AM,84.2,71.6,66,30.01,6.2,East,13.8,-,N/A,,Mostly Cloudy,100,2013-03-23 13:00:00
10:00 AM,86.0,71.6,62,30.01,6.2,East,20.7,-,N/A,,Mostly Cloudy,100,2013-03-23 14:00:00
11:00 AM,87.8,71.6,58,30.01,6.2,East,20.7,-,N/A,,Mostly Cloudy,100,2013-03-23 15:00:00
12:00 PM,86.0,71.6,62,30.01,6.2,East,13.8,-,N/A,,Mostly Cloudy,90,2013-03-23 16:00:00
1:00 PM,87.8,71.6,58,29.98,6.2,East,18.4,-,N/A,,Mostly Cloudy,100,2013-03-23 17:00:00
2:00 PM,87.8,71.6,58,29.95,6.2,East,13.8,-,N/A,,Mostly Cloudy,100,2013-03-23 18:00:00
3:00 PM,86.0,71.6,62,29.92,6.2,East,13.8,-,N/A,,Mostly Cloudy,90,2013-03-23 19:00:00
4:00 PM,86.0,71.6,62,29.89,6.2,East,13.8,-,N/A,,Mostly Cloudy,80,2013-03-23 20:00:00
5:00 PM,84.2,69.8,62,29.89,6.2,East,15.0,-,N/A,,Mostly Cloudy,100,2013-03-23 21:00:00
6:00 PM,82.4,69.8,66,29.89,6.2,East,8.1,-,N/A,,Mostly Cloudy,90,2013-03-23 22:00:00
7:00 PM,80.6,69.8,70,29.92,6.2,East,3.5,-,N/A,,Mostly Cloudy,80,2013-03-23 23:00:00
8:00 PM,78.8,69.8,74,29.95,6.2,Calm,Calm,-,N/A,,Mostly Cloudy,0,2013-03-24 00:00:00
9:00 PM,78.8,71.6,78,29.95,6.2,Calm,Calm,-,N/A,,Mostly Cloudy,0,2013-03-24 01:00:00
10:00 PM,78.8,71.6,78,29.95,6.2,Calm,Calm,-,N/A,,Mostly Cloudy,0,2013-03-24 02:00:00
11:00 PM,77.0,71.6,83,29.98,6.2,Calm,Calm,-,N/A,,Mostly Cloudy,0,2013-03-24 03:00:00